GLOBALSTAR M001 1 25162U 98008A 26037.39522874 -.00000047 00000+0 38162-3 0 9993 2 25162 52.0058 11.5319 0001715 37.4390 128.7854 12.38227025272725 GLOBALSTAR M004 1 25163U 98008B 26037.08367399 -.00000079 00000+0 14086-3 0 9993 2 25163 52.0007 60.5793 0003511 92.4560 302.6194 12.63414177291259 GLOBALSTAR M002 1 25164U 98008C 26037.32686618 -.00000082 00000+0 -11768-3 0 9998 2 25164 52.0044 13.1337 0001227 207.8078 152.2677 11.61515044211278 GLOBALSTAR M003 1 25165U 98008D 26037.82026080 -.00000198 00000+0 -11611-2 0 9999 2 25165 51.9849 238.6458 0008921 48.2774 17.3420 12.12030026261671 GLOBALSTAR M014 1 25306U 98023A 26037.10756649 -.00000051 00000+0 50433-3 0 9998 2 25306 51.9846 291.9929 0001817 66.3670 79.6631 11.65484320218442 GLOBALSTAR M006 1 25307U 98023B 26037.29593786 -.00000079 00000+0 -57889-4 0 9994 2 25307 51.9974 352.7372 0002860 167.8075 341.0277 11.58176397243958 GLOBALSTAR M015 1 25308U 98023C 26037.16967444 -.00000129 00000+0 -12639-2 0 9995 2 25308 51.9821 102.2479 0013282 132.8046 241.0052 11.48861557220971 GLOBALSTAR M008 1 25309U 98023D 26037.74106338 -.00000084 00000+0 93565-4 0 9995 2 25309 51.9944 238.0169 0002062 330.5621 109.9642 12.36080438266855 GLOBALSTAR M023 1 25621U 99004A 26037.05381649 -.00000048 00000+0 31016-3 0 9998 2 25621 52.0111 61.3041 0009367 283.6495 94.5580 12.62516834245274 GLOBALSTAR M040 1 25622U 99004B 26037.46476781 -.00000089 00000+0 81196-4 0 9996 2 25622 51.9921 64.5512 0001139 167.3535 340.0982 12.62028311244836 GLOBALSTAR M036 1 25623U 99004C 26037.23790259 -.00000030 00000+0 77283-3 0 9998 2 25623 52.0001 343.4014 0010684 137.2931 11.2191 11.86618660206761 GLOBALSTAR M038 1 25624U 99004D 26037.55327520 -.00000049 00000+0 38307-3 0 9995 2 25624 51.9971 116.6160 0002281 166.9859 300.8601 12.32540609231276 GLOBALSTAR M022 1 25649U 99012A 26037.33177264 -.00000064 00000+0 27312-3 0 9996 2 25649 52.0067 14.3826 0002440 275.7699 232.6894 12.02509400204549 GLOBALSTAR M041 1 25650U 99012B 26037.76083772 -.00000081 00000+0 56969-4 0 9995 2 25650 52.0000 261.8232 0002258 72.8900 287.2184 11.96683602206365 GLOBALSTAR M046 1 25651U 99012C 26037.17199118 -.00000011 00000+0 85551-3 0 9994 2 25651 52.0079 316.4136 0002296 11.7609 136.8144 12.09417379211971 GLOBALSTAR M037 1 25652U 99012D 26037.61059104 -.00000060 00000+0 24577-3 0 9999 2 25652 51.9986 190.1388 0001801 18.0174 62.7527 12.62461311240889 GLOBALSTAR M045 1 25676U 99019A 26037.31469058 -.00000051 00000+0 37587-3 0 9997 2 25676 51.9996 357.9491 0000419 27.4618 138.5639 12.27072562222136 GLOBALSTAR M019 1 25677U 99019B 26037.62307519 .00000048 00000+0 14402-2 0 9990 2 25677 51.9866 143.9355 0002085 91.6393 13.8993 12.13880402213615 GLOBALSTAR M044 1 25678U 99019C 26037.57286434 -.00000127 00000+0 -60275-3 0 9997 2 25678 51.9965 124.7557 0006815 130.7452 336.3035 11.90262939199237 GLOBALSTAR M042 1 25679U 99019D 26037.21888935 -.00000108 00000+0 -14619-3 0 9993 2 25679 52.0012 110.2688 0003226 73.0488 321.1121 12.22095290213874 GLOBALSTAR M025 1 25770U 99031A 26037.25369859 -.00000075 00000+0 -22848-3 0 9998 2 25770 51.9853 337.0388 0001946 158.3451 12.1404 11.22561105507999 GLOBALSTAR M049 1 25771U 99031B 26037.31012423 -.00000006 00000+0 20456-2 0 9993 2 25771 51.9901 23.4326 0002910 56.6095 303.4979 11.12122008143474 GLOBALSTAR M047 1 25772U 99031C 26037.25238156 -.00000059 00000+0 30442-3 0 9995 2 25772 51.9868 358.1722 0016321 306.0639 53.8654 11.31931976497619 GLOBALSTAR M052 1 25773U 99031D 26037.28150188 -.00000078 00000+0 -41482-3 0 9995 2 25773 51.9859 128.8821 0002985 183.6139 208.6877 11.15063576504628 GLOBALSTAR M035 1 25851U 99037A 26037.79054296 -.00000042 00000+0 80285-3 0 9991 2 25851 51.9917 251.7778 0013905 7.3938 76.3541 11.04542145122187 GLOBALSTAR M032 1 25852U 99037B 26037.09079070 -.00000137 00000+0 -22529-2 0 9994 2 25852 51.9958 62.3950 0012783 200.3391 159.6901 11.19067826160970 GLOBALSTAR M051 1 25853U 99037C 26037.58871890 -.00000075 00000+0 -63862-4 0 9997 2 25853 51.9766 195.4256 0001149 99.1783 260.9157 11.42200052159173 GLOBALSTAR M030 1 25854U 99037D 26037.24582630 -.00000101 00000+0 -55808-3 0 9992 2 25854 51.9913 347.4730 0003795 94.3366 265.7884 11.55108220177096 GLOBALSTAR M048 1 25872U 99041A 26037.62499985 -.00000046 00000+0 65381-3 0 9993 2 25872 51.9362 139.4348 0013063 226.6174 241.2909 11.33862014151570 GLOBALSTAR M026 1 25873U 99041B 26037.34562338 -.00000184 00000+0 -44116-2 0 9992 2 25873 52.0046 8.2539 0001825 308.6717 204.2824 11.06840136174418 GLOBALSTAR M043 1 25874U 99041C 26037.87582824 -.00000049 00000+0 55710-3 0 9995 2 25874 51.9373 255.8368 0013580 356.1691 98.3697 11.25697863149308 GLOBALSTAR M028 1 25875U 99041D 26037.64928495 -.00000094 00000+0 41360-4 0 9996 2 25875 51.9599 213.9314 0062764 219.9521 139.6711 12.50595680219511 GLOBALSTAR M024 1 25883U 99043A 26037.75868840 -.00000003 00000+0 21757-2 0 9992 2 25883 51.9976 211.3444 0002660 109.1896 348.6452 11.10169084140910 GLOBALSTAR M027 1 25884U 99043B 26037.83264377 -.00000100 00000+0 -13704-2 0 9999 2 25884 52.0225 295.8126 0021823 11.7267 348.4031 11.04373379167160 GLOBALSTAR M054 1 25885U 99043C 26037.04222410 -.00000077 00000+0 -14911-3 0 9990 2 25885 52.0162 25.6196 0004713 219.0109 183.8627 11.39223548145702 GLOBALSTAR M053 1 25886U 99043D 26037.19381862 -.00000043 00000+0 73527-3 0 9994 2 25886 52.0020 345.3376 0003565 112.9411 25.0910 11.27669850145843 GLOBALSTAR M058 1 25907U 99049A 26037.61412208 -.00000070 00000+0 19923-3 0 9990 2 25907 51.9916 203.1870 0002210 28.3107 331.7848 11.93208249569523 GLOBALSTAR M050 1 25908U 99049B 26037.74141064 .00000018 00000+0 12019-2 0 9993 2 25908 51.9963 192.9982 0009992 135.3432 327.2272 12.07464871176525 GLOBALSTAR M033 1 25909U 99049C 26037.03716033 -.00000032 00000+0 57817-3 0 9993 2 25909 51.9920 50.6132 0014259 26.8751 333.2833 12.20302678564292 GLOBALSTAR M055 1 25910U 99049D 26037.07586507 -.00000088 00000+0 56146-4 0 9996 2 25910 52.0029 49.8604 0006775 256.2978 103.7120 12.29440358197056 GLOBALSTAR M057 1 25943U 99058A 26037.40484046 -.00000061 00000+0 29299-3 0 9993 2 25943 51.9995 43.4876 0002656 132.8626 227.2447 12.24832999195633 GLOBALSTAR M059 1 25944U 99058B 26037.08945229 .00000002 00000+0 10909-2 0 9994 2 25944 52.0028 294.3876 0001128 67.5268 73.8479 11.99993023602123 GLOBALSTAR M056 1 25945U 99058C 26037.15907816 -.00000103 00000+0 -18067-3 0 9991 2 25945 51.9968 290.1625 0000664 340.4790 187.0456 12.04784334190820 GLOBALSTAR M031 1 25946U 99058D 26037.67941442 .00000052 00000+0 14460-2 0 9995 2 25946 51.9949 167.0183 0000380 318.0817 146.1149 12.16049150193075 GLOBALSTAR M039 1 25961U 99062A 26037.85372524 -.00000064 00000+0 21943-3 0 9995 2 25961 51.9840 273.9598 0002981 130.6857 229.4269 12.62341176209856 GLOBALSTAR M034 1 25962U 99062B 26037.53985132 -.00000059 00000+0 35106-3 0 9996 2 25962 51.9869 122.2011 0014952 124.6749 338.1108 11.79455584166047 GLOBALSTAR M029 1 25963U 99062C 26037.68912346 -.00000075 00000+0 13943-3 0 9993 2 25963 51.9784 180.5958 0002354 190.9461 272.8455 11.99908105197273 GLOBALSTAR M061 1 25964U 99062D 26037.24333409 -.00000078 00000+0 37014-4 0 9992 2 25964 51.9814 310.1175 0006654 46.4809 122.9427 11.76777341148730 GLOBALSTAR M063 1 26081U 00008A 26037.67740925 -.00000091 00000+0 -12363-3 0 9992 2 26081 51.9921 214.0027 0005347 52.4944 28.8633 11.86180864185400 GLOBALSTAR M062 1 26082U 00008B 26037.18221857 -.00000223 00000+0 -89337-3 0 9999 2 26082 51.9848 127.6632 0006823 247.1272 124.7511 12.43479264525731 GLOBALSTAR M060 1 26083U 00008C 26037.24889922 .00000001 00000+0 91074-3 0 9993 2 26083 52.0018 120.5922 0003045 228.0098 165.8763 12.17675404180887 GLOBALSTAR M064 1 26084U 00008D 26037.19186306 -.00000033 00000+0 72058-3 0 9991 2 26084 52.0054 311.3548 0001656 122.6384 237.4609 11.88540569194920 GLOBALSTAR M065 1 31571U 07020A 26037.74112618 -.00000079 00000+0 14108-3 0 9997 2 31571 51.9867 232.3516 0010844 105.8879 335.0082 12.62020269863022 GLOBALSTAR M069 1 31573U 07020C 26037.80786328 -.00000068 00000+0 22732-3 0 9991 2 31573 52.0015 261.1532 0000872 218.0463 223.4895 12.23468155862843 GLOBALSTAR M072 1 31574U 07020D 26037.19388601 -.00000067 00000+0 23075-3 0 9996 2 31574 51.9930 88.9860 0001363 80.3780 314.1992 11.91655484859361 GLOBALSTAR M071 1 31576U 07020F 26037.14851075 -.00000034 00000+0 56149-3 0 9995 2 31576 52.0074 295.2329 0000380 139.5383 27.2176 12.18264964523454 GLOBALSTAR M067 1 32263U 07048A 26037.11579449 -.00000063 00000+0 25767-3 0 9992 2 32263 51.9728 71.4279 0001535 123.7542 252.5806 12.40684643838520 GLOBALSTAR M070 1 32264U 07048B 26037.59850330 -.00000078 00000+0 14387-3 0 9998 2 32264 51.9746 134.3829 0000572 110.0630 357.9540 12.62329933843273 GLOBALSTAR M066 1 32265U 07048C 26037.11208933 -.00000092 00000+0 21662-4 0 9994 2 32265 51.9591 74.1918 0005226 129.1491 247.4445 12.30383854844094 GLOBALSTAR M068 1 32266U 07048D 26037.21623302 -.00000084 00000+0 10987-3 0 9995 2 32266 51.9903 308.8498 0000771 336.4611 188.5558 12.62839375847125 GLOBALSTAR M079 1 37188U 10054A 26037.31817044 -.00000080 00000+0 13401-3 0 9993 2 37188 52.0034 147.0540 0001033 101.5700 293.2698 12.62270297706027 GLOBALSTAR M074 1 37189U 10054B 26037.68651245 -.00000082 00000+0 11948-3 0 9999 2 37189 52.0008 145.2198 0000917 120.2723 28.1988 12.62265710706673 GLOBALSTAR M076 1 37190U 10054C 26037.62447982 -.00000089 00000+0 81205-4 0 9997 2 37190 52.0022 145.6008 0001090 116.0547 350.0477 12.62270016706388 GLOBALSTAR M077 1 37191U 10054D 26037.60564289 -.00000049 00000+0 53251-3 0 9991 2 37191 51.9962 150.9275 0001428 114.8237 345.1039 11.68178420705886 GLOBALSTAR M075 1 37192U 10054E 26037.71574963 -.00000093 00000+0 58514-4 0 9991 2 37192 51.9929 187.4485 0000905 97.5470 4.3114 12.62264113705465 GLOBALSTAR M073 1 37193U 10054F 26037.22631201 -.00000078 00000+0 14546-3 0 9996 2 37193 52.0060 102.9397 0000836 114.0049 281.1709 12.62269254707398 GLOBALSTAR M083 1 37739U 11033A 26037.42295317 -.00000112 00000+0 -48506-4 0 9990 2 37739 51.9868 50.7473 0000575 99.6445 51.2914 12.62266868676433 GLOBALSTAR M088 1 37740U 11033B 26037.24144390 -.00000072 00000+0 17799-3 0 9999 2 37740 52.0238 317.4124 0000584 64.6843 100.5958 12.62261051671955 GLOBALSTAR M091 1 37741U 11033C 26037.86965156 -.00000077 00000+0 14830-3 0 9997 2 37741 51.9994 278.6615 0000911 63.1603 17.3864 12.62269636672823 GLOBALSTAR M085 1 37742U 11033D 26037.86197401 -.00000102 00000+0 74015-5 0 9990 2 37742 52.0098 229.8604 0001111 75.3996 30.7170 12.62269093673333 GLOBALSTAR M081 1 37743U 11033E 26037.72419933 -.00000095 00000+0 50283-4 0 9994 2 37743 51.9931 232.8633 0001115 86.1587 354.2044 12.62262272673464 GLOBALSTAR M089 1 37744U 11033F 26037.60545895 -.00000099 00000+0 29125-4 0 9994 2 37744 51.9913 187.4079 0000991 116.8579 323.5024 12.62264136674297 GLOBALSTAR M084 1 38040U 11080A 26037.05093836 -.00000094 00000+0 52933-4 0 9996 2 38040 52.0014 56.5079 0000572 141.3182 237.5848 12.62267697652205 GLOBALSTAR M080 1 38041U 11080B 26037.02287032 -.00000091 00000+0 72109-4 0 9991 2 38041 52.0065 58.2665 0000320 36.1290 344.7543 12.62266074652328 GLOBALSTAR M082 1 38042U 11080C 26037.38675530 -.00000101 00000+0 14331-4 0 9990 2 38042 52.0097 12.6457 0000491 36.1962 128.8825 12.62267172653079 GLOBALSTAR M092 1 38043U 11080D 26037.17148174 -.00000077 00000+0 15082-3 0 9992 2 38043 52.0081 103.6908 0000640 118.5771 267.8857 12.62270015651509 GLOBALSTAR M090 1 38044U 11080E 26037.33409824 -.00000096 00000+0 44088-4 0 9993 2 38044 52.0147 6.7205 0000544 69.3330 95.0530 12.62266455653181 GLOBALSTAR M086 1 38045U 11080F 26037.27272862 -.00000088 00000+0 89576-4 0 9999 2 38045 51.9922 7.0501 0001442 108.5091 29.9732 12.62282452653121 GLOBALSTAR M097 1 39072U 13005A 26037.82532538 -.00000089 00000+0 82377-4 0 9992 2 39072 52.0044 280.1704 0000977 74.6136 285.4839 12.62268666600448 GLOBALSTAR M093 1 39073U 13005B 26037.79909576 -.00000086 00000+0 99022-4 0 9991 2 39073 52.0098 273.5484 0001246 71.6803 288.4199 12.62272686600390 GLOBALSTAR M094 1 39074U 13005C 26037.56160103 -.00000106 00000+0 -10913-4 0 9998 2 39074 51.9937 188.5157 0001162 92.0982 268.0018 12.62266797601970 GLOBALSTAR M096 1 39075U 13005D 26037.73302689 -.00000099 00000+0 26654-4 0 9994 2 39075 52.0049 236.6927 0001147 76.9709 283.1286 12.62263118600910 GLOBALSTAR M078 1 39076U 13005E 26037.15241497 -.00000040 00000+0 35473-3 0 9994 2 39076 51.9896 322.6522 0001053 11.2146 348.8744 12.62276704599469 GLOBALSTAR M095 1 39077U 13005F 26037.17894755 -.00000078 00000+0 14617-3 0 9996 2 39077 52.0103 319.9904 0000984 44.8146 315.2800 12.62268225599325 GLOBALSTAR M087 1 52888U 22064A 26037.19217497 -.00000085 00000+0 10564-3 0 9995 2 52888 51.9998 101.2622 0000684 97.8174 262.2771 12.62266621174599